Regional Weather Roundup
Issued by NWS

Home | Current Version | Previous Version | Graphics & Text | Print | Product List | Glossary On
Versions: 1 2 3 4 5 6 7 8 9 10 11 12 13 14 15 16 17 18 19 20 21 22 23 24 25 26 27 28 29 30 31 32 33 34 35 36 37 38 39 40 41 42 43 44 45 46 47 48 49 50
000
ASUS43 KLOT 230807
RWRIL

ILLINOIS REGIONAL WEATHER ROUNDUP
NATIONAL WEATHER SERVICE CHICAGO/ROMEOVILLE IL
300 AM CDT THU MAR 23 2017

NOTE: "FAIR" INDICATES FEW OR NO CLOUDS BELOW 12,000 FEET WITH NO
SIGNIFICANT WEATHER AND/OR OBSTRUCTIONS TO VISIBILITY.

* THESE STATIONS ARE NOT UNDER NWS QUALITY CONTROL. THEY ALSO MAY NOT
  REPORT WEATHER SUCH AS PRECIPITATION OR FOG.

ILZ001-002-007-009-015-016-024-230900-
NORTHWEST ILLINOIS

CITY           SKY/WX    TMP DP  RH WIND       PRES   REMARKS
MOLINE         CLOUDY    34  21  59 SE14      30.35F WCI  25
STERLING*      CLOUDY    32  22  66 E14       30.38F WCI  22
SAVANNA*       CLOUDY    33  20  59 SE9       30.38F WCI  26
$$

ILZ003-004-008-010-011-017-018-230900-
NORTH CENTRAL ILLINOIS

CITY           SKY/WX    TMP DP  RH WIND       PRES   REMARKS
ROCKFORD       CLOUDY    30  20  66 E9        30.42F WCI  22
FREEPORT*      CLOUDY    29  20  69 E10       30.41F WCI  20
ROCHELLE*      CLOUDY    31  22  67 SE12      30.41S WCI  22
DE KALB*       CLOUDY    31  23  72 SE12      30.40F WCI  21
PERU*          CLOUDY    32  20  63 SE10      30.40F WCI  23
$$

ILZ005-006-012>014-019>023-230900-
NORTHEAST ILLINOIS

CITY           SKY/WX    TMP DP  RH WIND       PRES   REMARKS
CHICAGO-OHARE  CLOUDY    29  22  75 SE7       30.43F WCI  22
CHICAGO-MIDWAY PTCLDY    32  19  58 SE10      30.44F WCI  24
AURORA         CLOUDY    33  21  61 E12       30.42F WCI  24
LANSING*       CLOUDY    28  23  81 SE5       30.46F WCI  23
JOLIET*        CLOUDY    33  22  65 SE9       30.44F WCI  25
WAUKEGAN       CLOUDY    31  25  78 SE8       30.43F WCI  23
DUPAGE AIRPORT MOCLDY    30  24  78 E6        30.42F WCI  24
KANKAKEE*      CLOUDY    29  22  75 CALM      30.43F
WHEELING       PTCLDY    29  24  82 SE3       30.45F
MORRIS*        CLOUDY    32  22  67 SE8       30.42F WCI  25
ROMEOVILLE*    CLOUDY    31  24  76 SE9       30.43F WCI  23
NORTHERLY ISL    N/A     34  21  59 SE15        N/A  WCI  24
$$

LMZ740>746-230900-
SOUTHERN LAKE MICHIGAN

STATION/POSITION SKY/WX   TEMP    WIND        PRES    VSBY  WAVE
                          AIR SEA DIR/SP/G                  HT/PER
                          (F)     (DEG/KT/KT) (MB)    (MI)  (FT/S)
HARRISON CRIB              35     150/ 17/ 22   N/A
BURNHAM HARBOR             33     120/  9/ 13   N/A
CALUMET HARBOR             32     140/  5/  7 1030.5F
BURNS HARBOR               32     140/  8/ 11 1031.8S
MICHIGAN CITY              28      90/  4/  5   N/A
$$

ILZ025>027-034>036-040-047-049-050-058-095>099-230900-
WEST-CENTRAL ILLINOIS

CITY           SKY/WX    TMP DP  RH WIND       PRES   REMARKS
QUINCY         CLOUDY    38  19  46 SE14      30.29F WCI  30
GALESBURG*     PTCLDY    34  24  65 E8          N/A  WCI  27
MACOMB*        CLOUDY    36  22  58 SE16      30.34F WCI  26
JACKSONVILLE*  CLOUDY    36  21  55 E10       30.32F WCI  28
PITTSFIELD*    CLOUDY    39  22  49 SE8       30.32F WCI  34
$$

ILZ028>032-037-038-041>044-048-051>054-059>061-230900-
CENTRAL ILLINOIS

CITY           SKY/WX    TMP DP  RH WIND       PRES   REMARKS
PONTIAC        MOCLDY    31  26  83 E8        30.42S WCI  23
BLOOMINGTON    CLOUDY    31  23  72 SE14      30.37F WCI  21
DECATUR        CLOUDY    33  22  63 E10       30.37F WCI  25
PEORIA         MOCLDY    35  21  56 SE14      30.36F WCI  26
LACON*         CLOUDY    31  24  78 E9        30.38F WCI  22
LINCOLN*       CLOUDY    35  24  63 SE7       30.37F WCI  29
SPRINGFIELD    CLOUDY    38  21  50 SE12      30.35F WCI  30
TAYLORVILLE    PTCLDY    35  22  59 E12       30.35F WCI  27
$$

ILZ033-039-045-046-055>057-062-063-230900-
EAST-CENTRAL ILLINOIS

CITY           SKY/WX    TMP DP  RH WIND       PRES   REMARKS
CHAMPAIGN      CLOUDY    29  21  72 E9        30.39F WCI  20
RANTOUL*       PTCLDY    31  26  80 E5        30.41S WCI  27
MATTOON        CLOUDY    33  21  61 E12       30.36F WCI  24
PARIS*         CLOUDY    31  23  73 E7        30.41F WCI  24
$$

ILZ079-100>102-230900-
SOUTHWEST ILLINOIS

CITY           SKY/WX    TMP DP  RH WIND       PRES   REMARKS
ALTON          CLOUDY    38  22  54 E7        30.33S WCI  32
BELLEVILLE     CLOUDY    38  22  52 E6        30.32R WCI  34
CAHOKIA*       CLOUDY    41  19  41 SE6       30.32S
SPARTA*        MOCLDY    39  22  50 E9        30.33S WCI  33
$$

ILZ064>066-069>071-074>076-080>082-084>086-088>090-092>094-230900-
SOUTH-CENTRAL ILLINOIS

CITY           SKY/WX    TMP DP  RH WIND       PRES   REMARKS
CARBONDALE     CLOUDY    40  24  53 E7        30.32F
CAIRO*         MOCLDY    42  26  53 E10       30.30F
EFFINGHAM*     PTCLDY    36  25  63 E10       30.38F WCI  29
MARION         CLOUDY    41  23  48 E7        30.32F
MT. VERNON     CLEAR     36  21  54 E8        30.35F WCI  30
CENTRALIA*     CLEAR     37  24  57 E7        30.33F WCI  32
SALEM*         CLEAR     38  22  52 E6        30.35F WCI  33
METROPOLIS*    MOCLDY    40  23  50 E6        30.32F
$$

ILZ067-068-072-073-078-083-087-091-230900-
SOUTHEAST ILLINOIS

CITY           SKY/WX    TMP DP  RH WIND       PRES   REMARKS
LAWRENCEVILLE  CLEAR     32  21  64 NE8       30.40F WCI  25
FLORA*         CLEAR     36  23  59 E5        30.37F WCI  32
FAIRFIELD*     CLEAR     37  23  55 E7        30.35F WCI  32
HARRISBURG*    CLEAR     36  26  66 E8        30.34F WCI  30
ROBINSON*      CLEAR     30  22  70 E6        30.42S WCI  24
CARMI*         CLEAR     34  24  66 E5        30.36F WCI  30
$$

ABBREVIATIONS USED IN REMARKS
   TC - TEMPERATURE IN CELSIUS
  WCI - WIND CHILL INDEX
   HX - HEAT INDEX
  VSB - VISIBILITY
$$





USA.gov is the U.S. government's official web portal to all federal, state and local government web resources and services.